This demonstration page uses our WeatherBlox Daily Observations layout. Learn more.

Left ArrowRight Arrow

Hourly Observations for November 25, 2021

Temp ( °F °C ) Dew Point ( °F °C ) Humidity (%) Winds ( mph kmh ) Pressure ( in mb ) Visibility ( mi km ) Precip ( " mm )
6:30 am 06:30 Cloudy with Light Rain 46 8 45 7 93 93 ESE 7 11 30.08 1019 7 11 N/A
6:45 am 06:45 Cloudy with Light Rain 46 8 45 7 93 93 S 9 15 30.08 1019 7 11 N/A
7:45 am 07:45 Cloudy with Light Rain 46 8 45 7 93 93 SSW 14 22 30.07 1018 7 11 N/A
8:45 am 08:45 Cloudy 46 8 45 7 93 93 SSW 13 20 30.06 1018 8 13 N/A
9:21 am 09:21 Cloudy with Light Rain 46 8 45 7 93 93 SSW 13 20 30.07 1018 3 5 N/A
9:45 am 09:45 Cloudy with Light Rain 46 8 45 7 93 93 SSW 13 20 30.07 1018 3 4 N/A
10:45 am 10:45 Cloudy with Light Rain 46 8 45 7 93 93 undefined N/A 30.07 1018 N/A N/A
10:52 am 10:52 Cloudy with Light Rain 46 8 45 7 93 93 SW 9 15 30.07 1018 N/A N/A
11:45 am 11:45 Cloudy 48 9 46 8 94 94 SW 8 13 30.06 1018 10 16 N/A
12:47 pm 12:47 Cloudy with Light Rain 48 9 46 8 94 94 W 10 17 30.04 1017 5 8 N/A
1:45 pm 13:45 Cloudy 46 8 43 6 87 87 WNW 14 22 30.05 1018 7 11 N/A
2:37 pm 14:37 Cloudy 46 8 43 6 87 87 WNW 16 26 30.05 1018 10 16 N/A
2:45 pm 14:45 Cloudy 45 7 39 4 81 81 WNW 14 22 30.06 1018 10 16 N/A
3:45 pm 15:45 Cloudy 43 6 37 3 81 81 WNW 13 20 30.08 1019 10 16 N/A
4:45 pm 16:45 Cloudy 41 5 36 2 81 81 WNW 10 17 30.11 1020 10 16 N/A
5:45 pm 17:45 Cloudy 39 4 36 2 87 87 WNW 12 19 30.13 1020 10 16 N/A
6:45 pm 18:45 Cloudy 39 4 34 1 81 81 NW 14 22 30.16 1021 10 16 N/A
7:45 pm 19:45 Cloudy 37 3 32 0 81 81 WNW 17 28 30.18 1022 10 16 N/A
8:45 pm 20:45 Cloudy 36 2 32 0 87 87 NW 12 19 30.18 1022 10 16 N/A
9:45 pm 21:45 Cloudy 34 1 28 -2 81 81 WNW 18 30 30.20 1023 10 16 N/A

Powered by AerisWeather